[[{"header":{"parameterUnit":"m.s-1","parameterCategory":2,"la1":30.2992,"la2":30.254,"lo1":-89.0895,"lo2":-89.0443,"dy":0.0025,"dx":0.0025,"nx":19,"ny":19,"refTime":"2026-03-28T09:00:00:Z","depth":"0","parameterNumber":2,"parameterNumberName":"U-component_of_CURRENTS"},"data":[0,0,0,0.2837,0.2839,0.2918,0.2918,0.3048,0.305,0,0,0,0,0,0,0,0,0,0,0,0.2808,0.2809,0.2837,0.2839,0.2918,0.2918,0.3048,0.305,0,0,0,0,0,0,0,0,0,0,0,0.2808,0.2808,0.2809,0.2839,0.2918,0.2918,0.3048,0.2981,0,0,0,0,0,0,0,0,0,0,0.29,0.2866,0.2808,0.2809,0.284,0.2918,0.2918,0.2977,0.2985,0.3022,0,0.3036,0,0.3049,0.3059,0.306,0,0,0,0.2837,0.2859,0.2886,0.2809,0.284,0.2918,0.2882,0.2981,0.299,0.3032,0.3038,0.3043,0.3052,0.306,0.3061,0.3256,0.3257,0,0,0.2833,0.2819,0.288,0.2891,0.2865,0.2879,0.2884,0.2986,0.2995,0.3038,0.3046,0.3054,0.3061,0.3062,0.3255,0.3256,0,0,0,0.2821,0.2816,0.2839,0.2886,0.29,0.2882,0.2887,0.299,0.3,0.3047,0.3055,0.3062,0.3064,0.3254,0.3255,0.3313,0,0,0,0.2819,0.281,0.2837,0.283,0.2898,0.2942,0.2889,0.2992,0.3004,0.3055,0.3062,0.3065,0.3252,0.3255,0.3309,0.3356,0,0,0,0.2804,0.2808,0.2819,0.2829,0.2865,0.294,0.2955,0.2995,0.301,0.306,0.3066,0.3252,0.3254,0.3306,0.3349,0.349,0,0,0,0.2784,0.2822,0.2819,0.2871,0.2864,0.2959,0.2954,0.3022,0.3068,0.3063,0.3253,0.3255,0.3304,0.3345,0.3484,0.3382,0.34,0,0,0.2825,0.2827,0.286,0.286,0.2941,0.2947,0.3058,0.3106,0.3122,0.3218,0.3222,0.3311,0.3349,0.3489,0.3528,0.3541,0,0,0,0.2869,0.2881,0.291,0.2952,0.3016,0.3095,0.3133,0.3179,0.327,0.3161,0.3346,0.337,0.3456,0.3383,0.3394,0.3425,0.3267,0.3267,0.3266,0.2861,0.2905,0.2964,0.3025,0.3095,0.3202,0.3283,0.3356,0.3343,0.3404,0.3442,0.3624,0.3545,0.3553,0.3585,0.346,0.346,0.3461,0.3461,0.2895,0.2932,0.2992,0.3063,0.3164,0.3261,0.3432,0.3463,0.3627,0.3555,0.3636,0.3477,0.3568,0.3598,0.3465,0.3464,0.3464,0.3463,0.3463,0.2869,0.2905,0.2941,0.306,0.318,0.3315,0.3498,0.3622,0.3701,0.378,0.3752,0.3748,0.3758,0.3837,0.3838,0.3839,0.384,0.384,0.3841,0.2844,0.289,0.2952,0.3075,0.3158,0.3327,0.357,0.3687,0.3829,0.3845,0.3844,0.3827,0.374,0.3706,0.3854,0.3852,0.385,0.3849,0.3848,0.2859,0.2877,0.2967,0.3044,0.3228,0.3286,0.3556,0.3729,0.3899,0.3931,0.3946,0.3892,0.3883,0.387,0.3841,0.4016,0.4016,0.4016,0.4016,0.2862,0.2883,0.2975,0.3077,0.3211,0.328,0.3334,0.3502,0.3782,0.3903,0.4038,0.3897,0.3889,0.3874,0.3861,0.383,0.3998,0.3999,0.3999,0.2892,0.2916,0.2961,0.3043,0.3174,0.318,0.3079,0.3182,0.3679,0.4008,0.4119,0.412,0.3918,0.3902,0.3872,0.3852,0.3795,0,0]},{"header":{"parameterUnit":"m.s-1","parameterCategory":2,"la1":30.2992,"la2":30.254,"lo1":-89.0895,"lo2":-89.0443,"dy":0.0025,"dx":0.0025,"nx":19,"ny":19,"refTime":"2026-03-28T09:00:00:Z","depth":"0","parameterNumber":3,"parameterNumberName":"V-component_of_CURRENTS"},"data":[0,0,0,-0.0183,-0.0183,-0.022,-0.022,-0.0315,-0.0316,0,0,0,0,0,0,0,0,0,0,0,-0.0174,-0.0174,-0.0183,-0.0183,-0.022,-0.022,-0.0315,-0.0316,0,0,0,0,0,0,0,0,0,0,0,-0.0174,-0.0174,-0.0174,-0.0183,-0.022,-0.022,-0.0315,-0.0278,0,0,0,0,0,0,0,0,0,0,-0.0238,-0.0217,-0.0174,-0.0174,-0.0183,-0.022,-0.022,-0.0276,-0.0281,-0.0307,0,-0.0305,0,-0.0306,-0.0322,-0.0322,0,0,0,-0.0197,-0.0213,-0.0221,-0.0174,-0.0183,-0.0219,-0.0207,-0.0278,-0.0283,-0.0313,-0.0307,-0.031,-0.0307,-0.0322,-0.0323,-0.0334,-0.0333,0,0,-0.0195,-0.0187,-0.0217,-0.0224,-0.0184,-0.0206,-0.0208,-0.0281,-0.0285,-0.0307,-0.0312,-0.0309,-0.0323,-0.0324,-0.0334,-0.0334,0,0,0,-0.018,-0.0186,-0.0191,-0.022,-0.0219,-0.0207,-0.0209,-0.0282,-0.0283,-0.0313,-0.031,-0.0324,-0.0325,-0.0335,-0.0334,-0.0183,0,0,0,-0.0179,-0.0175,-0.019,-0.0186,-0.0217,-0.0244,-0.0208,-0.0278,-0.0286,-0.031,-0.0324,-0.0326,-0.0336,-0.0334,-0.0188,-0.0113,0,0,0,-0.0174,-0.0175,-0.0176,-0.0186,-0.0194,-0.0242,-0.0248,-0.028,-0.0284,-0.0322,-0.0326,-0.0336,-0.0335,-0.0193,-0.0122,-0.0032,0,0,0,-0.017,-0.0136,-0.0175,-0.0134,-0.0194,-0.0165,-0.0247,-0.0247,-0.0269,-0.0324,-0.0335,-0.0334,-0.0194,-0.0128,-0.0038,0.0045,0.0079,0,0,-0.0116,-0.0129,-0.01,-0.0136,-0.0078,-0.0162,-0.0106,-0.018,-0.0262,-0.0319,-0.0319,-0.0186,-0.0123,-0.0033,0.0122,0.0155,0,0,0,-0.0075,-0.0049,-0.004,-0.002,-0.0029,-0.0015,-0.0091,-0.0125,-0.0172,-0.0268,-0.0202,-0.0166,-0.0114,-0.0078,-0.0052,-0.022,-0.0328,-0.0328,-0.0328,0.0021,0.0024,0.0086,0.0093,0.0101,0.008,0.0088,0.0022,-0.0082,-0.0081,-0.0054,0.0102,0.0141,0.0162,-0.0012,-0.0074,-0.0073,-0.0073,-0.0072,0.0139,0.0183,0.0185,0.0241,0.0239,0.0269,0.0242,0.0194,0.0187,0.0065,0.0108,0.0065,0.0199,0.0003,-0.0063,-0.0064,-0.0066,-0.0067,-0.0067,0.0208,0.0232,0.0258,0.0337,0.04,0.0395,0.0525,0.0454,0.0336,0.0378,0.0382,0.038,0.0217,0.0389,0.039,0.039,0.0391,0.0392,0.0392,0.0263,0.0297,0.0377,0.0442,0.0511,0.0626,0.0681,0.0717,0.0665,0.0561,0.0561,0.0256,0.0242,0.0236,0.0404,0.0402,0.04,0.0399,0.0398,0.0358,0.036,0.05,0.0576,0.0762,0.0953,0.0985,0.106,0.1027,0.1009,0.0569,0.0654,0.0615,0.0592,0.0593,0.0843,0.0843,0.0843,0.0843,0.0414,0.0426,0.0634,0.0799,0.1002,0.1123,0.1362,0.135,0.1028,0.082,0.0655,0.0536,0.0525,0.0469,0.045,0.0441,0.0648,0.0647,0.0647,0.0489,0.055,0.0719,0.0882,0.1113,0.1334,0.1532,0.1557,0.1043,0.0614,0.041,0.0419,0.0209,0.0206,0.0082,0.0068,0.004,0,0]}],[{"header":{"parameterUnit":"m.s-1","parameterCategory":2,"la1":30.2992,"la2":30.254,"lo1":-89.0895,"lo2":-89.0443,"dy":0.0025,"dx":0.0025,"nx":19,"ny":19,"refTime":"2026-03-28T09:00:00:Z","depth":"2","parameterNumber":2,"parameterNumberName":"U-component_of_CURRENTS"},"data":[0,0,0,0.2807,0.2809,0.2889,0.2889,0.3015,0.3016,0,0,0,0,0,0,0,0,0,0,0,0.2779,0.2779,0.2807,0.2809,0.2889,0.2889,0.3015,0.3016,0,0,0,0,0,0,0,0,0,0,0,0.2779,0.2779,0.278,0.281,0.2889,0.2889,0.3014,0.2948,0,0,0,0,0,0,0,0,0,0,0.2867,0.2835,0.2779,0.278,0.281,0.2889,0.2889,0.2944,0.2952,0.2986,0,0.3002,0,0.3015,0.3025,0.3026,0,0,0,0.2807,0.2828,0.2855,0.278,0.2811,0.2888,0.2852,0.2948,0.2957,0.2997,0.3003,0.3008,0.3017,0.3026,0.3027,0.3216,0.3217,0,0,0.2803,0.279,0.2849,0.286,0.2837,0.285,0.2855,0.2953,0.2963,0.3004,0.3011,0.3019,0.3027,0.3028,0.3215,0.3216,0,0,0,0.2791,0.2787,0.281,0.2855,0.287,0.2852,0.2858,0.2958,0.2967,0.3012,0.3021,0.3028,0.3029,0.3214,0.3215,0.3275,0,0,0,0.2789,0.2781,0.2808,0.2801,0.2868,0.2911,0.286,0.296,0.2972,0.302,0.3028,0.3031,0.3213,0.3215,0.3271,0.3313,0,0,0,0.2774,0.2779,0.2791,0.28,0.2836,0.291,0.2924,0.2963,0.2977,0.3026,0.3031,0.3212,0.3214,0.3268,0.3307,0.344,0,0,0,0.2755,0.2794,0.279,0.2838,0.2836,0.2929,0.2923,0.2991,0.3036,0.3029,0.3213,0.3215,0.3266,0.3303,0.3435,0.3311,0.3326,0,0,0.2797,0.2798,0.2828,0.2827,0.2909,0.2917,0.3024,0.3071,0.3088,0.3179,0.3183,0.3273,0.3307,0.3439,0.3454,0.3465,0,0,0,0.2836,0.2847,0.2877,0.2915,0.298,0.3059,0.3096,0.3143,0.3233,0.3126,0.3307,0.3327,0.3409,0.3323,0.3332,0.3227,0.3227,0.3226,0.3226,0.2828,0.2868,0.2925,0.2984,0.3054,0.3161,0.3242,0.3314,0.3304,0.3364,0.34,0.3576,0.3483,0.3489,0.342,0.342,0.342,0.342,0.3421,0.2856,0.2887,0.2947,0.3018,0.312,0.3216,0.3386,0.3418,0.3577,0.351,0.3587,0.3419,0.3503,0.3426,0.3425,0.3424,0.3424,0.3423,0.3423,0.2826,0.286,0.2896,0.3012,0.3135,0.327,0.3447,0.3574,0.3651,0.3727,0.3681,0.3677,0.363,0.3783,0.3784,0.3784,0.3785,0.3786,0.3786,0.2793,0.2841,0.2901,0.3025,0.3107,0.3274,0.3517,0.3625,0.3755,0.3768,0.3767,0.37,0.3688,0.3654,0.3798,0.3796,0.3795,0.3793,0.3793,0.2801,0.2816,0.2905,0.2981,0.3159,0.3202,0.3452,0.3605,0.3793,0.3811,0.3806,0.3802,0.3787,0.3776,0.3746,0.3907,0.3907,0.3907,0.3907,0.2793,0.2814,0.29,0.2999,0.312,0.318,0.3156,0.3233,0.3474,0.3525,0.3541,0.3368,0.3373,0.3326,0.3325,0.3281,0.3321,0.332,0.3319,0.2812,0.2837,0.2879,0.2961,0.3075,0.3055,0.2837,0.2665,0.288,0.3288,0.3357,0.3883,0.3665,0.366,0.3611,0.36,0.354,0,0]},{"header":{"parameterUnit":"m.s-1","parameterCategory":2,"la1":30.2992,"la2":30.254,"lo1":-89.0895,"lo2":-89.0443,"dy":0.0025,"dx":0.0025,"nx":19,"ny":19,"refTime":"2026-03-28T09:00:00:Z","depth":"2","parameterNumber":3,"parameterNumberName":"V-component_of_CURRENTS"},"data":[0,0,0,-0.0118,-0.0118,-0.0155,-0.0156,-0.0241,-0.0242,0,0,0,0,0,0,0,0,0,0,0,-0.011,-0.011,-0.0118,-0.0118,-0.0155,-0.0156,-0.0241,-0.0242,0,0,0,0,0,0,0,0,0,0,0,-0.011,-0.011,-0.011,-0.0118,-0.0155,-0.0156,-0.0241,-0.0207,0,0,0,0,0,0,0,0,0,0,-0.0168,-0.0149,-0.011,-0.011,-0.0119,-0.0155,-0.0156,-0.0205,-0.0209,-0.0231,0,-0.023,0,-0.0231,-0.0248,-0.0248,0,0,0,-0.0132,-0.0145,-0.0152,-0.011,-0.0119,-0.0155,-0.0143,-0.0207,-0.0212,-0.0237,-0.0231,-0.0234,-0.0233,-0.0248,-0.0248,-0.025,-0.025,0,0,-0.013,-0.0122,-0.0149,-0.0155,-0.012,-0.0141,-0.0143,-0.021,-0.0214,-0.0232,-0.0236,-0.0234,-0.0249,-0.0249,-0.0251,-0.025,0,0,0,-0.0115,-0.0121,-0.0126,-0.0152,-0.0152,-0.0142,-0.0145,-0.0211,-0.0212,-0.0237,-0.0235,-0.0249,-0.025,-0.0252,-0.0251,-0.0107,0,0,0,-0.0114,-0.0111,-0.0125,-0.0122,-0.015,-0.0176,-0.0144,-0.0207,-0.0214,-0.0235,-0.0249,-0.0251,-0.0252,-0.0251,-0.0112,-0.0035,0,0,0,-0.0109,-0.0111,-0.0112,-0.0121,-0.013,-0.0174,-0.018,-0.0209,-0.0213,-0.0248,-0.0251,-0.0253,-0.0251,-0.0116,-0.0044,0.0044,0,0,0,-0.0105,-0.0072,-0.0111,-0.0067,-0.013,-0.01,-0.0179,-0.0178,-0.0198,-0.0249,-0.0252,-0.0251,-0.0118,-0.005,0.0038,0.0104,0.0137,0,0,-0.0052,-0.0066,-0.0035,-0.0069,-0.0012,-0.0096,-0.0038,-0.0109,-0.0188,-0.0238,-0.0238,-0.011,-0.0045,0.0043,0.0183,0.0214,0,0,0,-0.0008,0.0018,0.0027,0.0049,0.004,0.0053,-0.002,-0.0054,-0.0098,-0.0192,-0.0123,-0.0086,-0.0035,-0.0009,0.0015,-0.0244,-0.0244,-0.0245,-0.0245,0.0087,0.0093,0.0156,0.0165,0.0173,0.0152,0.0159,0.0095,-0.0006,-0.0007,0.0022,0.0174,0.0204,0.0223,0.0001,0.0002,0.0002,0.0003,0.0003,0.0208,0.0256,0.0258,0.0314,0.0312,0.0343,0.0317,0.0267,0.0261,0.0139,0.0181,0.013,0.0258,0.0014,0.0012,0.0011,0.001,0.0009,0.0008,0.0279,0.0305,0.033,0.0412,0.0475,0.0469,0.0597,0.0524,0.0406,0.0446,0.0439,0.0436,0.0279,0.0453,0.0454,0.0455,0.0455,0.0456,0.0456,0.0339,0.0372,0.0453,0.052,0.0587,0.0703,0.0751,0.0784,0.0721,0.0613,0.0613,0.0326,0.0311,0.0304,0.0468,0.0466,0.0464,0.0463,0.0462,0.044,0.0445,0.0582,0.0658,0.0846,0.1029,0.1056,0.1108,0.1073,0.1045,0.0708,0.0698,0.066,0.0638,0.0637,0.0878,0.0878,0.0878,0.0878,0.0505,0.0518,0.0727,0.0887,0.1092,0.1198,0.1405,0.1345,0.1142,0.098,0.0975,0.088,0.0862,0.0826,0.08,0.0798,0.1082,0.1082,0.1082,0.059,0.0646,0.0817,0.0974,0.1202,0.1406,0.1547,0.1434,0.1138,0.1085,0.0961,0.0902,0.0742,0.0722,0.0642,0.061,0.0596,0,0]}],[{"header":{"parameterUnit":"m.s-1","parameterCategory":2,"la1":30.2992,"la2":30.254,"lo1":-89.0895,"lo2":-89.0443,"dy":0.0025,"dx":0.0025,"nx":19,"ny":19,"refTime":"2026-03-28T09:00:00:Z","depth":"4","parameterNumber":2,"parameterNumberName":"U-component_of_CURRENTS"},"data":[0,0,0,0.1773,0.1777,0.1975,0.1976,0.2129,0.213,0,0,0,0,0,0,0,0,0,0,0,0.1704,0.1706,0.1772,0.1777,0.1975,0.1976,0.2129,0.213,0,0,0,0,0,0,0,0,0,0,0,0.1704,0.1705,0.1707,0.1778,0.1975,0.1976,0.2129,0.2005,0,0,0,0,0,0,0,0,0,0,0.1826,0.1787,0.1705,0.1707,0.1779,0.1974,0.1976,0.2001,0.2013,0.201,0,0.2047,0,0.2089,0.2138,0.2139,0,0,0,0.1781,0.1777,0.1818,0.1707,0.1781,0.1974,0.1887,0.2008,0.2022,0.2026,0.2049,0.2056,0.2092,0.2139,0.2139,0.2287,0.2288,0,0,0.177,0.175,0.1809,0.1827,0.1838,0.188,0.1893,0.2018,0.2039,0.205,0.206,0.2094,0.214,0.214,0.2286,0.2287,0,0,0,0.1736,0.1743,0.1784,0.182,0.1863,0.1886,0.19,0.2034,0.2045,0.2062,0.2096,0.214,0.2142,0.2285,0.2287,0.2345,0,0,0,0.173,0.1723,0.1779,0.1771,0.1861,0.1968,0.1913,0.2037,0.2053,0.2095,0.214,0.2143,0.2285,0.2286,0.2342,0.2369,0,0,0,0.1694,0.1719,0.1741,0.1769,0.1852,0.1967,0.1987,0.2042,0.2072,0.2139,0.2143,0.2284,0.2286,0.2339,0.2363,0.2453,0,0,0,0.1667,0.1695,0.1741,0.1795,0.185,0.1947,0.1987,0.2077,0.2135,0.2141,0.2285,0.2286,0.2338,0.236,0.2449,0.2134,0,0,0,0.1676,0.1696,0.1726,0.1772,0.1859,0.192,0.2032,0.2127,0.2161,0.2235,0.224,0.2343,0.2363,0.2452,0.2243,0,0,0,0,0.1711,0.1736,0.177,0.1843,0.1917,0.2026,0.2113,0.2168,0.2288,0.2206,0.2363,0.2375,0.2429,0.2234,0.2295,0.2295,0.2295,0.2295,0.2294,0.1705,0.1752,0.181,0.1889,0.1961,0.2106,0.22,0.2295,0.2314,0.2388,0.2437,0.2564,0.236,0.2453,0.2454,0.2454,0.2454,0.2455,0.2455,0.1714,0.1736,0.1834,0.1911,0.2033,0.2143,0.2309,0.2376,0.2539,0.2513,0.2564,0.2326,0.2461,0.246,0.2459,0.2458,0.2458,0.2457,0.2457,0.168,0.169,0.1774,0.1888,0.2036,0.2189,0.234,0.2489,0.2599,0.2669,0.2503,0.2626,0.2606,0.2722,0.2723,0.2723,0.2724,0.2724,0.2725,0.1593,0.1666,0.1724,0.1859,0.1945,0.2127,0.2385,0.2491,0.2645,0.255,0.2717,0.2655,0.2647,0.2623,0.2733,0.2731,0.273,0.273,0.2729,0.15,0.1555,0.1621,0.1697,0.1879,0.1975,0.2258,0.2405,0.2508,0.2504,0.2486,0.2496,0.2455,0.2452,0.2419,0.2473,0.2469,0.2465,0,0.1427,0.1456,0.1536,0.16,0.1694,0.1877,0.1956,0.2134,0.2277,0.2194,0.251,0.2484,0.2489,0.2436,0.2428,0.2384,0,0,0,0.1364,0.1411,0.1424,0.1511,0.1581,0.1751,0.1976,0.1965,0.2248,0.2254,0.2375,0.2399,0.2591,0.2757,0.2719,0.2708,0.2669,0,0]},{"header":{"parameterUnit":"m.s-1","parameterCategory":2,"la1":30.2992,"la2":30.254,"lo1":-89.0895,"lo2":-89.0443,"dy":0.0025,"dx":0.0025,"nx":19,"ny":19,"refTime":"2026-03-28T09:00:00:Z","depth":"4","parameterNumber":3,"parameterNumberName":"V-component_of_CURRENTS"},"data":[0,0,0,0.0171,0.0171,0.0138,0.0138,0.0092,0.0091,0,0,0,0,0,0,0,0,0,0,0,0.0185,0.0185,0.0171,0.0171,0.0138,0.0138,0.0092,0.0091,0,0,0,0,0,0,0,0,0,0,0,0.0185,0.0185,0.0185,0.017,0.0138,0.0138,0.0092,0.0116,0,0,0,0,0,0,0,0,0,0,0.0147,0.0163,0.0185,0.0185,0.017,0.0139,0.0138,0.0117,0.0114,0.0107,0,0.0108,0,0.01,0.0089,0.0088,0,0,0,0.0164,0.0165,0.0158,0.0185,0.017,0.0139,0.0151,0.0115,0.0112,0.0103,0.0108,0.0106,0.0099,0.0088,0.0088,0.0104,0.0104,0,0,0.0166,0.0175,0.016,0.0156,0.017,0.0152,0.015,0.0114,0.0113,0.0107,0.0105,0.0098,0.0088,0.0088,0.0103,0.0104,0,0,0,0.0175,0.0177,0.017,0.0158,0.0153,0.0151,0.0149,0.0115,0.0113,0.0104,0.0098,0.0088,0.0087,0.0103,0.0104,0.0194,0,0,0,0.0176,0.0183,0.0171,0.0176,0.0155,0.0134,0.0151,0.0116,0.0111,0.0098,0.0088,0.0087,0.0102,0.0103,0.0191,0.0244,0,0,0,0.0185,0.0183,0.0183,0.0177,0.0165,0.0135,0.0131,0.0115,0.0108,0.0088,0.0087,0.0102,0.0103,0.0188,0.0238,0.0256,0,0,0,0.0191,0.0218,0.0183,0.0211,0.0166,0.019,0.0131,0.0138,0.0129,0.0088,0.0102,0.0104,0.0187,0.0234,0.0253,0.0266,0,0,0,0.0234,0.0223,0.0241,0.021,0.0258,0.0194,0.0235,0.0191,0.014,0.0111,0.0112,0.0192,0.0238,0.0256,0.0331,0,0,0,0,0.0261,0.0277,0.0286,0.0299,0.0297,0.0303,0.0255,0.0229,0.0201,0.014,0.0189,0.0215,0.0224,0.0221,0.0109,0.0109,0.0109,0.0109,0.0108,0.0321,0.0327,0.0376,0.0384,0.0396,0.0378,0.0375,0.0328,0.0269,0.0267,0.0287,0.0362,0.0364,0.0275,0.0275,0.0276,0.0276,0.0276,0.0277,0.04,0.0435,0.0445,0.0498,0.05,0.0529,0.0488,0.0447,0.0423,0.0363,0.0365,0.0315,0.0286,0.0284,0.0282,0.0281,0.0281,0.028,0.028,0.0439,0.0466,0.0493,0.0578,0.0638,0.0636,0.0684,0.0623,0.052,0.0529,0.0489,0.0419,0.0412,0.0517,0.0517,0.0518,0.0518,0.0518,0.0518,0.0476,0.051,0.059,0.0672,0.074,0.081,0.08,0.0768,0.0666,0.0604,0.0552,0.0443,0.0435,0.0425,0.0524,0.0523,0.0522,0.0522,0.0521,0.0548,0.0559,0.0682,0.0758,0.0916,0.095,0.095,0.0857,0.0818,0.0738,0.0624,0.0617,0.0581,0.057,0.0562,0.0706,0.0706,0.0707,0,0.0592,0.0609,0.0763,0.0895,0.1013,0.1036,0.1008,0.095,0.0802,0.0792,0.0784,0.0659,0.0651,0.0612,0.0602,0.0596,0,0,0,0.0654,0.0686,0.0799,0.0924,0.1049,0.1028,0.0999,0.0952,0.0845,0.079,0.0721,0.0717,0.0634,0.0539,0.0467,0.0457,0.0437,0,0]}]]